QPF
0.00 0.00 0.00 0.00 0.00 0.00 0.00 0.00 0.00 0.00 0.00 0.00 0.00 0.00 0.00 0.00 0.00 0.01 0.00 0.00 0.00 0.02 0.02 0.01 0.03 0.02 0.01 0.01 0.00 0.00 0.00 0.00 0.00 0.00 0.00 0.00 0.00 0.00 0.00 0.00 0.00 0.00 0.00 0.00 0.00 0.00 0.00 0.00 0.00
0.00 0.00 0.00 0.00 0.00 0.00 0.00 0.00 0.00 0.00 0.00 0.00 0.00 0.00 0.00 0.00 0.00 0.00 0.00 0.00 0.00 0.03 0.03 0.04 0.03 0.04 0.01 0.00 0.01 0.00 0.00 0.00 0.00 0.00 0.00 0.00 0.00 0.00 0.00 0.00 0.00 0.00 0.00 0.00 0.00 0.00 0.00 0.00 0.00
0.00 0.00 0.00 0.00 0.00 0.00 0.00 0.00 0.00 0.00 0.00 0.00 0.00 0.00 0.00 0.00 0.00 0.00 0.00 0.00 0.00 0.01 0.03 0.07 0.06 0.05 0.02 0.01 0.01 0.01 0.00 0.00 0.00 0.00 0.00 0.00 0.00 0.00 0.00 0.00 0.00 0.00 0.00 0.00 0.00 0.00 0.00 0.00 0.00
0.00 0.00 0.00 0.00 0.00 0.00 0.00 0.00 0.00 0.00 0.00 0.00 0.00 0.00 0.00 0.00 0.00 0.00 0.00 0.00 0.00 0.00 0.03 0.06 0.09 0.08 0.06 0.01 0.05 0.01 0.00 0.00 0.00 0.00 0.00 0.00 0.00 0.00 0.00 0.00 0.00 0.00 0.00 0.00 0.00 0.00 0.00 0.00 0.00
0.00 0.00 0.00 0.00 0.00 0.00 0.00 0.00 0.00 0.00 0.00 0.00 0.00 0.00 0.00 0.00 0.00 0.00 0.00 0.00 0.00 0.00 0.02 0.07 0.08 0.07 0.04 0.01 0.05 0.01 0.00 0.00 0.00 0.00 0.00 0.00 0.00 0.00 0.00 0.00 0.00 0.00 0.00 0.00 0.00 0.00 0.00 0.00 0.00
0.00 0.00 0.00 0.00 0.00 0.00 0.00 0.00 0.00 0.00 0.00 0.00 0.00 0.00 0.00 0.00 0.00 0.00 0.00 0.00 0.00 0.00 0.01 0.02 0.02 0.04 0.04 0.04 0.10 0.05 0.01 0.00 0.00 0.00 0.00 0.00 0.00 0.00 0.00 0.00 0.00 0.00 0.00 0.00 0.00 0.00 0.00 0.00 0.00
0.00 0.00 0.00 0.00 0.00 0.00 0.00 0.00 0.00 0.00 0.00 0.00 0.00 0.00 0.00 0.00 0.00 0.00 0.00 0.00 0.00 0.00 0.00 0.04 0.11 0.03 0.02 0.09 0.13 0.07 0.01 0.00 0.00 0.00 0.00 0.00 0.00 0.00 0.00 0.00 0.00 0.00 0.00 0.00 0.00 0.00 0.00 0.00 0.00
0.00 0.00 0.00 0.00 0.00 0.00 0.00 0.00 0.00 0.00 0.00 0.00 0.00 0.00 0.00 0.00 0.00 0.00 0.00 0.00 0.01 0.01 0.03 0.11 0.11 0.07 0.10 0.12 0.12 0.10 0.01 0.00 0.00 0.00 0.00 0.00 0.00 0.00 0.00 0.00 0.00 0.00 0.00 0.00 0.00 0.00 0.00 0.00 0.00
0.00 0.00 0.00 0.00 0.00 0.00 0.00 0.00 0.00 0.00 0.00 0.00 0.00 0.00 0.00 0.00 0.00 0.00 0.00 0.01 0.01 0.01 0.01 0.03 0.02 0.04 0.09 0.17 0.15 0.05 0.00 0.00 0.00 0.00 0.00 0.00 0.00 0.00 0.00 0.00 0.00 0.00 0.00 0.00 0.00 0.00 0.00 0.00 0.00
0.00 0.00 0.00 0.00 0.00 0.00 0.00 0.00 0.00 0.00 0.00 0.00 0.01 0.01 0.00 0.00 0.00 0.00 0.00 0.00 0.00 0.00 0.00 0.00 0.00 0.02 0.04 0.07 0.13 0.05 0.00 0.00 0.00 0.00 0.00 0.00 0.00 0.00 0.00 0.00 0.00 0.00 0.00 0.00 0.00 0.00 0.00 0.00 0.00
0.00 0.00 0.00 0.00 0.00 0.00 0.00 0.00 0.00 0.00 0.00 0.01 0.04 0.03 0.02 0.00 0.00 0.00 0.00 0.00 0.00 0.00 0.00 0.00 0.00 0.00 0.01 0.08 0.07 0.01 0.00 0.00 0.00 0.00 0.00 0.00 0.00 0.00 0.00 0.00 0.00 0.00 0.00 0.00 0.00 0.00 0.00 0.00 0.00
0.00 0.00 0.00 0.00 0.00 0.00 0.00 0.00 0.00 0.00 0.00 0.01 0.01 0.02 0.02 0.03 0.03 0.01 0.00 0.00 0.00 0.00 0.00 0.00 0.00 0.00 0.00 0.00 0.01 0.00 0.00 0.00 0.00 0.00 0.00 0.00 0.00 0.00 0.00 0.00 0.00 0.00 0.00 0.00 0.00 0.00 0.00 0.00 0.00
0.00 0.00 0.00 0.00 0.00 0.00 0.00 0.00 0.00 0.01 0.01 0.04 0.01 0.02 0.03 0.03 0.04 0.03 0.00 0.02 0.02 0.00 0.00 0.00 0.00 0.00 0.00 0.00 0.00 0.00 0.00 0.00 0.00 0.00 0.00 0.00 0.00 0.00 0.00 0.00 0.00 0.00 0.00 0.00 0.00 0.00 0.00 0.00 0.00
0.00 0.00 0.00 0.00 0.00 0.00 0.00 0.00 0.00 0.01 0.03 0.02 0.01 0.04 0.02 0.01 0.01 0.01 0.01 0.01 0.01 0.00 0.00 0.00 0.00 0.00 0.00 0.00 0.00 0.00 0.00 0.00 0.00 0.00 0.00 0.00 0.00 0.00 0.00 0.00 0.00 0.00 0.00 0.00 0.00 0.00 0.00 0.00 0.00
0.00 0.00 0.00 0.00 0.00 0.00 0.00 0.00 0.00 0.00 0.03 0.05 0.05 0.12 0.04 0.01 0.01 0.01 0.01 0.00 0.00 0.00 0.00 0.00 0.00 0.00 0.00 0.00 0.00 0.00 0.00 0.00 0.00 0.00 0.00 0.00 0.00 0.00 0.00 0.00 0.00 0.00 0.00 0.00 0.00 0.00 0.00 0.00 0.00
0.00 0.00 0.00 0.00 0.00 0.00 0.00 0.00 0.00 0.00 0.01 0.03 0.03 0.03 0.01 0.02 0.01 0.00 0.00 0.00 0.00 0.00 0.00 0.00 0.00 0.00 0.00 0.00 0.00 0.00 0.00 0.00 0.00 0.00 0.00 0.00 0.00 0.01 0.00 0.00 0.00 0.00 0.00 0.00 0.00 0.00 0.00 0.00 0.00
0.00 0.00 0.00 0.00 0.00 0.00 0.00 0.00 0.00 0.00 0.00 0.00 0.02 0.04 0.02 0.01 0.00 0.00 0.00 0.00 0.00 0.00 0.00 0.00 0.00 0.00 0.00 0.00 0.00 0.00 0.00 0.00 0.00 0.00 0.00 0.00 0.00 0.00 0.00 0.00 0.00 0.00 0.00 0.00 0.00 0.00 0.00 0.00 0.00
0.00 0.00 0.00 0.00 0.00 0.00 0.00 0.00 0.00 0.00 0.00 0.00 0.01 0.01 0.01 0.00 0.00 0.00 0.00 0.00 0.00 0.00 0.00 0.00 0.00 0.00 0.00 0.00 0.00 0.00 0.00 0.00 0.00 0.00 0.00 0.00 0.00 0.00 0.00 0.00 0.01 0.01 0.01 0.00 0.00 0.00 0.00 0.00 0.00
0.00 0.00 0.00 0.00 0.00 0.00 0.00 0.00 0.00 0.00 0.00 0.00 0.00 0.00 0.00 0.00 0.00 0.00 0.00 0.00 0.00 0.00 0.00 0.00 0.00 0.00 0.00 0.00 0.00 0.00 0.00 0.00 0.00 0.00 0.01 0.01 0.00 0.00 0.00 0.00 0.01 0.02 0.02 0.01 0.01 0.00 0.00 0.00 0.00
0.00 0.00 0.00 0.00 0.00 0.00 0.00 0.00 0.00 0.00 0.00 0.00 0.00 0.00 0.00 0.00 0.00 0.00 0.00 0.00 0.00 0.00 0.00 0.00 0.00 0.00 0.00 0.00 0.00 0.00 0.00 0.00 0.00 0.00 0.00 0.00 0.00 0.00 0.00 0.00 0.00 0.02 0.05 0.08 0.06 0.02 0.00 0.00 0.00
0.00 0.00 0.00 0.00 0.00 0.00 0.00 0.00 0.00 0.00 0.00 0.00 0.00 0.00 0.00 0.00 0.00 0.00 0.00 0.00 0.00 0.00 0.00 0.00 0.00 0.00 0.00 0.00 0.00 0.00 0.00 0.00 0.00 0.00 0.00 0.00 0.00 0.00 0.00 0.01 0.01 0.01 0.03 0.06 0.09 0.06 0.01 0.01 0.01
0.00 0.00 0.00 0.00 0.00 0.00 0.00 0.01 0.00 0.00 0.00 0.00 0.00 0.01 0.01 0.01 0.00 0.00 0.00 0.00 0.00 0.00 0.00 0.00 0.00 0.00 0.00 0.00 0.00 0.00 0.00 0.00 0.00 0.00 0.00 0.00 0.00 0.01 0.01 0.01 0.02 0.02 0.02 0.06 0.08 0.05 0.03 0.02 0.03
0.00 0.00 0.00 0.00 0.00 0.00 0.00 0.00 0.00 0.00 0.01 0.02 0.02 0.01 0.01 0.01 0.00 0.00 0.00 0.00 0.00 0.00 0.00 0.00 0.00 0.00 0.00 0.00 0.00 0.00 0.00 0.00 0.00 0.00 0.00 0.00 0.00 0.00 0.01 0.01 0.02 0.02 0.01 0.03 0.07 0.05 0.05 0.05 0.05
0.00 0.00 0.00 0.00 0.00 0.00 0.00 0.01 0.03 0.04 0.02 0.13 0.05 0.01 0.02 0.01 0.00 0.00 0.00 0.00 0.00 0.00 0.00 0.00 0.00 0.00 0.00 0.00 0.00 0.00 0.00 0.00 0.00 0.00 0.00 0.00 0.00 0.01 0.04 0.02 0.03 0.04 0.04 0.04 0.05 0.07 0.08 0.06 0.03
0.00 0.00 0.00 0.00 0.00 0.00 0.00 0.01 0.08 0.03 0.02 0.05 0.04 0.02 0.02 0.00 0.00 0.00 0.00 0.00 0.00 0.00 0.00 0.00 0.00 0.00 0.00 0.00 0.00 0.00 0.00 0.01 0.01 0.01 0.01 0.00 0.00 0.03 0.04 0.04 0.05 0.06 0.02 0.03 0.03 0.05 0.04 0.02 0.02
0.00 0.00 0.00 0.00 0.00 0.00 0.00 0.02 0.03 0.01 0.03 0.02 0.01 0.01 0.00 0.00 0.00 0.00 0.00 0.00 0.00 0.00 0.00 0.00 0.00 0.00 0.00 0.00 0.00 0.00 0.02 0.02 0.02 0.02 0.01 0.02 0.04 0.04 0.06 0.06 0.06 0.05 0.06 0.07 0.05 0.05 0.04 0.04 0.05
0.00 0.00 0.00 0.00 0.00 0.00 0.00 0.03 0.02 0.00 0.01 0.01 0.00 0.00 0.00 0.00 0.00 0.00 0.01 0.00 0.00 0.00 0.00 0.00 0.00 0.00 0.00 0.01 0.01 0.02 0.04 0.05 0.03 0.02 0.02 0.03 0.05 0.06 0.07 0.08 0.07 0.08 0.09 0.06 0.04 0.03 0.04 0.06 0.04
0.00 0.00 0.00 0.00 0.00 0.00 0.00 0.02 0.02 0.00 0.01 0.01 0.01 0.00 0.00 0.00 0.00 0.00 0.00 0.00 0.00 0.00 0.00 0.00 0.00 0.00 0.01 0.02 0.03 0.04 0.04 0.02 0.02 0.03 0.04 0.04 0.05 0.07 0.08 0.10 0.07 0.08 0.07 0.03 0.01 0.01 0.00 0.01 0.01
0.00 0.00 0.00 0.00 0.00 0.00 0.01 0.04 0.00 0.01 0.03 0.04 0.01 0.00 0.00 0.00 0.00 0.00 0.00 0.00 0.00 0.00 0.00 0.00 0.00 0.00 0.01 0.03 0.02 0.01 0.01 0.00 0.02 0.03 0.04 0.04 0.06 0.09 0.07 0.05 0.03 0.02 0.03 0.01 0.00 0.00 0.00 0.00 0.00
0.00 0.00 0.00 0.00 0.02 0.02 0.02 0.05 0.00 0.00 0.02 0.06 0.04 0.00 0.00 0.00 0.00 0.00 0.00 0.00 0.00 0.00 0.00 0.00 0.00 0.01 0.01 0.01 0.00 0.00 0.01 0.01 0.02 0.03 0.03 0.01 0.06 0.05 0.02 0.00 0.00 0.00 0.00 0.00 0.00 0.00 0.00 0.00 0.00
MSLP
1011.66 1010.92 1010.14 1009.05 1006.79 1004.43 1004.88 1006.34 1006.24 1006.49 1006.91 1008.10 1008.63 1008.92 1009.41 1010.29 1010.80 1012.41 1013.68 1013.70 1013.63 1013.92 1015.30 1015.91 1016.53 1016.65 1016.80 1017.02 1017.15 1017.29 1017.48 1017.55 1017.67 1017.81 1017.93 1018.04 1018.02 1018.11 1018.16 1018.24 1018.47 1018.59 1018.41 1018.51 1018.66 1018.67 1018.74 1018.77 1018.88
1010.54 1010.42 1009.41 1006.92 1004.80 1003.55 1005.37 1005.92 1006.18 1006.84 1008.01 1008.68 1009.09 1009.39 1009.93 1011.32 1012.49 1013.49 1013.52 1014.14 1013.86 1014.91 1015.69 1016.04 1016.87 1017.01 1017.24 1017.56 1017.82 1017.89 1017.84 1017.86 1018.05 1018.15 1018.25 1018.30 1018.38 1018.53 1018.62 1018.62 1018.58 1018.71 1018.82 1018.85 1019.03 1019.12 1019.18 1019.16 1019.18
1010.55 1009.86 1007.65 1005.48 1004.16 1004.22 1005.08 1005.69 1006.42 1007.44 1008.23 1008.26 1008.84 1009.91 1011.00 1012.68 1013.13 1013.87 1014.08 1014.34 1014.38 1015.11 1015.81 1016.60 1017.18 1017.40 1017.64 1017.98 1018.01 1018.15 1018.29 1018.38 1018.41 1018.37 1018.61 1018.90 1018.95 1019.08 1019.03 1019.10 1019.09 1019.13 1019.31 1019.27 1019.33 1019.45 1019.50 1019.55 1019.47
1009.57 1008.53 1007.33 1005.11 1004.17 1005.19 1005.19 1005.86 1006.25 1007.11 1007.98 1008.56 1009.08 1010.48 1013.00 1014.78 1013.77 1014.34 1014.82 1014.71 1014.92 1015.21 1015.69 1017.23 1017.63 1017.77 1017.99 1018.14 1018.42 1018.43 1018.62 1018.76 1018.88 1018.87 1018.80 1018.89 1019.11 1019.27 1019.33 1019.40 1019.44 1019.41 1019.59 1019.64 1019.67 1019.61 1019.68 1019.76 1019.74
1008.89 1007.17 1005.27 1004.57 1004.74 1005.62 1005.99 1006.19 1006.40 1006.72 1007.63 1008.50 1009.30 1011.07 1013.25 1015.74 1015.55 1015.00 1015.16 1015.13 1015.00 1014.99 1016.26 1017.17 1017.92 1018.12 1018.24 1018.34 1018.60 1018.81 1019.02 1019.12 1019.21 1019.42 1019.42 1019.41 1019.40 1019.46 1019.69 1019.67 1019.71 1019.77 1019.95 1020.04 1020.05 1020.14 1020.23 1020.17 1020.08
1007.13 1006.51 1004.39 1003.76 1004.95 1005.90 1006.57 1006.67 1006.80 1006.94 1008.11 1009.05 1010.04 1011.61 1014.52 1016.27 1016.43 1015.45 1015.28 1015.24 1015.07 1015.74 1016.70 1016.95 1018.03 1018.26 1018.42 1018.64 1018.81 1018.99 1019.24 1019.43 1019.51 1019.61 1019.81 1019.95 1019.90 1019.96 1020.03 1020.10 1020.11 1020.28 1020.25 1020.32 1020.22 1020.37 1020.42 1020.40 1020.33
1006.55 1005.36 1004.58 1004.61 1005.24 1006.15 1006.98 1007.17 1007.16 1007.80 1008.71 1009.96 1010.59 1011.96 1014.78 1016.00 1016.67 1015.59 1015.59 1016.01 1015.75 1015.98 1016.29 1017.30 1017.76 1018.22 1018.71 1018.81 1019.06 1019.19 1019.43 1019.59 1019.70 1019.84 1019.91 1020.10 1020.25 1020.34 1020.31 1020.35 1020.39 1020.48 1020.44 1020.51 1020.51 1020.58 1020.75 1020.70 1020.56
1006.95 1005.59 1004.92 1005.26 1005.40 1007.00 1007.83 1008.17 1008.65 1009.02 1011.24 1011.54 1011.59 1012.41 1014.33 1016.15 1016.38 1015.69 1016.64 1016.04 1016.88 1017.03 1017.25 1018.32 1018.35 1018.34 1018.63 1018.76 1019.23 1019.40 1019.54 1019.75 1019.84 1019.90 1020.00 1020.14 1020.31 1020.41 1020.49 1020.41 1020.53 1020.58 1020.61 1020.71 1020.93 1020.85 1020.93 1020.78 1020.75
1007.50 1005.44 1005.19 1006.07 1006.20 1007.73 1008.44 1008.87 1010.47 1011.25 1012.27 1012.94 1013.24 1013.97 1015.67 1016.71 1016.22 1016.92 1016.94 1017.72 1017.98 1018.58 1018.63 1018.52 1018.59 1018.96 1018.97 1019.13 1019.41 1019.78 1019.92 1019.96 1019.92 1020.03 1020.18 1020.05 1019.13 1019.63 1020.00 1020.28 1020.50 1020.68 1020.73 1020.77 1020.92 1020.79 1020.74 1020.65 1020.31
1006.76 1005.85 1007.26 1008.44 1007.97 1008.69 1009.53 1009.91 1010.88 1011.74 1013.37 1015.40 1016.27 1017.05 1017.16 1017.33 1017.61 1017.93 1018.26 1018.70 1019.19 1019.51 1019.71 1019.43 1018.99 1018.92 1019.01 1019.41 1019.76 1020.17 1020.01 1019.37 1019.11 1019.16 1019.45 1019.08 1019.40 1019.40 1019.55 1020.11 1020.51 1020.67 1020.78 1021.00 1021.00 1020.79 1020.54 1019.78 1019.31
1008.39 1008.46 1008.67 1009.36 1009.52 1010.05 1011.05 1011.82 1012.15 1013.15 1015.30 1016.64 1017.53 1018.29 1018.52 1018.66 1019.25 1019.16 1019.49 1019.76 1019.95 1020.21 1020.02 1019.39 1019.09 1019.11 1018.82 1019.28 1020.00 1020.48 1020.65 1019.95 1019.70 1019.66 1019.56 1019.43 1019.29 1019.23 1019.33 1019.12 1019.38 1019.85 1020.66 1020.14 1020.24 1019.80 1019.47 1019.94 1019.92
1008.87 1009.97 1009.68 1010.42 1011.06 1011.30 1012.27 1013.68 1015.13 1015.74 1017.78 1018.58 1019.19 1019.46 1019.84 1020.12 1020.47 1020.50 1020.74 1020.46 1020.18 1020.39 1020.34 1019.96 1019.63 1019.40 1019.60 1018.77 1019.02 1019.57 1019.59 1019.71 1019.14 1019.33 1019.81 1019.52 1019.26 1019.17 1019.36 1018.80 1018.92 1019.71 1019.23 1019.54 1019.57 1019.52 1020.28 1020.31 1020.14
1009.56 1010.57 1011.13 1011.58 1012.17 1013.01 1014.00 1015.12 1016.65 1018.20 1019.08 1019.64 1020.14 1020.32 1020.68 1021.22 1021.46 1021.43 1021.61 1021.55 1021.22 1021.26 1021.14 1020.70 1020.63 1020.50 1020.19 1020.09 1020.26 1020.45 1020.54 1020.30 1020.06 1019.89 1020.21 1019.90 1019.63 1019.65 1019.74 1019.53 1019.43 1019.57 1019.78 1019.85 1020.20 1021.08 1020.95 1020.77 1019.85
1010.20 1010.93 1011.59 1012.06 1012.57 1013.49 1014.49 1016.32 1017.40 1019.33 1019.76 1019.96 1020.50 1021.12 1021.43 1021.69 1021.96 1022.08 1022.26 1022.34 1022.12 1021.71 1021.68 1021.55 1021.45 1021.59 1021.44 1021.47 1021.33 1021.17 1021.01 1020.90 1020.72 1020.86 1021.13 1021.08 1020.91 1021.35 1020.70 1021.37 1020.89 1020.94 1021.50 1022.26 1021.96 1022.12 1021.34 1019.96 1019.68
1010.31 1010.45 1011.20 1012.13 1012.67 1013.40 1013.88 1016.52 1018.76 1019.89 1020.03 1020.37 1021.09 1021.53 1021.92 1022.26 1022.58 1023.11 1023.35 1023.17 1023.07 1022.55 1022.43 1022.12 1021.81 1021.91 1022.06 1022.08 1022.21 1021.97 1022.40 1022.25 1022.55 1022.29 1022.18 1022.10 1022.19 1022.23 1022.44 1022.50 1022.28 1022.00 1021.87 1022.34 1022.17 1021.97 1021.16 1019.78 1019.81
1009.17 1009.54 1009.67 1012.00 1012.54 1013.16 1013.71 1017.10 1018.91 1019.38 1019.87 1020.62 1021.34 1021.77 1022.29 1022.94 1023.53 1023.81 1023.85 1023.80 1023.65 1023.38 1023.24 1023.32 1023.23 1023.30 1023.27 1023.31 1022.95 1022.84 1022.78 1022.69 1022.78 1022.71 1022.87 1022.51 1022.51 1022.38 1022.25 1022.09 1021.92 1021.79 1022.12 1022.19 1022.25 1021.52 1021.48 1021.05 1020.44
1008.56 1008.55 1010.01 1011.66 1012.64 1013.08 1013.85 1017.30 1019.26 1019.62 1019.88 1020.40 1021.14 1021.97 1022.72 1023.40 1023.92 1024.30 1024.42 1024.40 1024.29 1024.21 1024.06 1023.85 1023.48 1023.25 1022.98 1022.96 1023.08 1023.39 1023.29 1023.12 1023.19 1022.96 1022.98 1022.86 1022.65 1022.61 1022.44 1022.59 1022.08 1021.95 1022.02 1022.26 1022.36 1022.28 1021.97 1020.98 1020.76
1007.58 1009.25 1010.59 1011.52 1013.37 1013.66 1015.44 1017.61 1018.86 1019.57 1019.52 1020.18 1020.94 1022.19 1023.13 1023.76 1024.38 1024.66 1024.68 1024.56 1024.37 1024.20 1024.14 1023.99 1023.58 1023.52 1023.09 1022.74 1022.37 1022.10 1021.95 1021.94 1022.41 1022.32 1022.49 1022.69 1022.76 1022.12 1022.14 1022.23 1021.87 1021.78 1021.47 1022.30 1021.86 1022.02 1021.40 1020.99 1020.54
1008.33 1009.46 1011.12 1012.79 1013.92 1014.50 1015.60 1017.28 1018.47 1019.10 1019.46 1020.53 1021.42 1022.22 1022.96 1023.59 1024.03 1024.24 1024.38 1023.99 1023.89 1023.99 1023.83 1023.80 1023.71 1023.91 1023.41 1023.01 1022.72 1022.45 1022.11 1021.74 1021.43 1021.56 1021.80 1021.72 1021.41 1021.06 1020.97 1020.50 1019.95 1020.68 1020.50 1020.99 1021.01 1021.42 1021.17 1020.27 1019.87
1008.70 1009.69 1011.26 1013.07 1014.01 1014.52 1015.78 1017.20 1018.75 1019.14 1019.58 1020.77 1021.57 1021.92 1022.45 1022.67 1022.96 1023.54 1023.66 1023.80 1023.73 1023.64 1023.73 1023.76 1023.87 1023.96 1023.75 1023.38 1023.28 1023.14 1022.68 1022.02 1021.85 1021.56 1021.85 1021.62 1021.68 1021.26 1020.91 1020.68 1020.05 1019.59 1019.91 1020.11 1020.29 1020.48 1020.15 1020.38 1020.15
1009.02 1009.52 1011.09 1011.90 1013.80 1014.53 1015.70 1016.46 1018.27 1019.53 1020.31 1020.89 1021.39 1021.68 1021.73 1022.15 1022.60 1022.90 1023.22 1023.56 1023.46 1023.53 1023.64 1023.74 1023.85 1023.96 1024.00 1023.98 1023.16 1022.99 1022.33 1021.80 1021.47 1021.62 1021.28 1021.53 1021.41 1021.26 1020.94 1020.91 1020.51 1020.14 1019.64 1019.40 1019.59 1019.90 1020.15 1019.39 1018.90
1008.63 1010.35 1011.06 1012.13 1012.54 1011.98 1014.15 1013.78 1015.43 1018.01 1019.88 1020.79 1021.05 1021.29 1021.50 1022.04 1022.69 1023.09 1022.92 1023.17 1023.36 1023.46 1023.48 1023.61 1023.84 1023.93 1023.79 1023.90 1023.51 1023.50 1022.66 1022.09 1022.18 1021.71 1021.53 1021.59 1021.21 1021.25 1021.01 1020.73 1020.47 1020.06 1019.60 1019.44 1019.48 1019.41 1019.26 1019.24 1018.86
1010.25 1010.77 1010.96 1011.59 1011.65 1012.55 1013.08 1013.94 1014.24 1016.16 1018.69 1020.34 1021.02 1021.69 1022.12 1022.52 1022.63 1022.99 1023.10 1023.27 1023.32 1023.32 1023.49 1023.68 1023.93 1023.91 1023.93 1023.93 1023.80 1023.37 1022.93 1022.56 1022.09 1021.91 1021.79 1021.30 1020.89 1020.76 1020.79 1020.61 1020.18 1019.97 1019.48 1019.23 1019.41 1019.34 1019.38 1019.21 1019.18
1010.94 1011.11 1011.18 1011.23 1011.08 1010.81 1011.97 1013.55 1014.50 1016.44 1017.87 1019.15 1021.02 1021.91 1022.37 1022.94 1023.28 1023.39 1023.16 1023.19 1023.09 1023.01 1023.32 1023.58 1023.81 1023.96 1023.94 1023.84 1023.63 1023.49 1023.40 1023.16 1022.63 1022.10 1021.60 1020.97 1020.68 1020.44 1020.90 1020.59 1020.36 1020.16 1019.81 1019.49 1019.20 1019.16 1019.20 1019.26 1019.07
1010.93 1010.34 1009.85 1009.71 1009.66 1009.90 1012.35 1013.95 1017.07 1018.59 1019.40 1019.88 1020.96 1022.28 1023.11 1023.72 1024.44 1024.40 1023.02 1022.89 1023.14 1023.60 1023.81 1024.05 1023.74 1023.81 1023.73 1023.73 1023.66 1023.57 1023.44 1023.25 1022.72 1022.49 1021.94 1021.68 1020.75 1020.36 1020.70 1020.45 1020.30 1020.02 1019.66 1019.42 1019.25 1019.12 1019.08 1019.03 1018.95
1011.02 1011.47 1010.74 1010.65 1010.40 1011.00 1012.45 1014.50 1019.01 1020.23 1020.70 1020.99 1021.93 1023.03 1023.77 1024.47 1024.74 1024.48 1023.45 1023.91 1023.80 1023.99 1024.41 1024.21 1023.84 1023.86 1023.82 1023.71 1023.88 1023.54 1023.53 1023.28 1022.90 1022.64 1022.28 1021.71 1021.57 1021.13 1020.80 1020.55 1020.34 1020.06 1019.83 1019.65 1019.43 1019.28 1019.04 1019.01 1019.01
1011.43 1011.44 1012.57 1012.14 1011.38 1011.86 1012.73 1017.08 1019.56 1020.93 1021.59 1022.05 1022.73 1023.28 1024.14 1024.42 1024.45 1024.39 1024.25 1024.38 1024.92 1024.56 1024.65 1024.25 1024.14 1024.00 1024.03 1024.36 1024.25 1024.03 1024.00 1023.59 1023.23 1023.05 1022.72 1022.06 1021.84 1021.48 1020.94 1020.65 1020.45 1020.25 1020.07 1019.90 1020.07 1019.90 1019.64 1019.24 1019.25
1012.98 1013.39 1012.65 1012.19 1012.28 1012.53 1013.08 1016.08 1019.32 1020.63 1021.63 1022.44 1022.74 1023.63 1023.95 1023.98 1024.57 1024.51 1024.87 1025.21 1025.22 1024.92 1024.30 1024.48 1024.55 1024.78 1024.62 1024.60 1024.50 1024.24 1024.21 1024.14 1024.02 1023.70 1023.13 1022.61 1022.05 1021.57 1021.03 1020.80 1020.68 1020.55 1020.44 1020.37 1020.28 1020.45 1020.56 1020.30 1020.18
1013.52 1013.42 1013.94 1014.38 1014.34 1014.00 1014.51 1017.97 1020.09 1020.72 1021.31 1021.96 1022.45 1023.04 1023.47 1024.20 1024.32 1024.89 1025.44 1025.37 1024.75 1024.53 1024.43 1024.81 1025.20 1025.34 1024.84 1024.86 1024.78 1024.66 1024.67 1024.30 1023.84 1023.63 1023.44 1022.88 1022.34 1021.89 1021.55 1021.30 1021.15 1021.00 1020.89 1020.62 1020.81 1021.02 1021.00 1020.72 1020.50
1015.52 1015.44 1015.31 1014.63 1015.16 1015.89 1016.33 1019.10 1020.18 1020.86 1021.59 1022.06 1022.67 1023.38 1024.01 1024.40 1024.88 1025.28 1024.90 1024.69 1024.83 1024.87 1025.16 1025.52 1025.68 1025.37 1025.17 1025.32 1025.43 1025.20 1024.60 1024.33 1024.05 1023.98 1023.88 1023.74 1023.34 1022.67 1022.00 1021.87 1021.99 1021.93 1021.69 1021.25 1021.05 1020.80 1020.89 1020.66 1020.27
Thickness
5802 5807 5813 5811 5800 5820 5794 5779 5800 5791 5791 5795 5792 5782 5774 5771 5759 5736 5763 5767 5766 5765 5751 5745 5741 5739 5740 5740 5739 5739 5738 5738 5738 5736 5735 5734 5733 5733 5733 5733 5730 5729 5731 5730 5729 5730 5729 5729 5727
5809 5810 5812 5817 5802 5797 5779 5797 5789 5795 5791 5792 5787 5783 5774 5753 5762 5753 5758 5761 5761 5753 5747 5743 5736 5734 5732 5731 5730 5729 5730 5730 5728 5728 5727 5727 5727 5726 5724 5725 5726 5724 5723 5723 5721 5720 5720 5722 5722
5809 5814 5806 5810 5811 5786 5781 5800 5797 5796 5796 5792 5784 5787 5772 5750 5761 5755 5762 5760 5757 5750 5744 5737 5732 5730 5727 5723 5724 5723 5723 5722 5721 5722 5720 5717 5717 5716 5716 5715 5716 5715 5713 5714 5714 5713 5713 5713 5714
5809 5811 5812 5803 5798 5798 5801 5804 5808 5798 5798 5797 5792 5766 5761 5753 5760 5760 5758 5756 5753 5749 5743 5731 5727 5725 5722 5719 5716 5714 5714 5713 5712 5713 5714 5713 5710 5708 5709 5708 5706 5707 5705 5705 5705 5706 5706 5706 5707
5814 5813 5800 5799 5797 5799 5804 5810 5810 5799 5796 5792 5791 5762 5752 5743 5752 5758 5754 5752 5750 5748 5736 5729 5722 5719 5716 5713 5710 5707 5705 5704 5703 5701 5702 5704 5704 5702 5698 5698 5697 5697 5696 5695 5695 5694 5694 5696 5697
5804 5812 5802 5801 5794 5799 5801 5809 5808 5805 5797 5790 5779 5765 5743 5743 5742 5753 5755 5752 5750 5742 5731 5727 5718 5713 5709 5704 5702 5700 5697 5696 5696 5696 5696 5695 5694 5692 5691 5690 5690 5689 5689 5688 5690 5687 5687 5687 5687
5802 5805 5798 5802 5794 5791 5793 5811 5802 5797 5791 5777 5785 5757 5747 5742 5742 5753 5752 5746 5743 5738 5732 5722 5715 5708 5701 5697 5694 5694 5691 5692 5693 5693 5691 5689 5687 5686 5685 5685 5684 5682 5682 5680 5681 5681 5679 5679 5679
5808 5811 5801 5801 5796 5779 5795 5799 5801 5793 5763 5783 5783 5756 5743 5741 5747 5752 5742 5745 5734 5728 5723 5712 5709 5706 5700 5696 5691 5690 5688 5687 5688 5687 5687 5686 5684 5681 5679 5679 5677 5676 5674 5673 5671 5672 5670 5670 5669
5815 5805 5796 5792 5796 5784 5798 5789 5786 5787 5767 5766 5767 5760 5748 5743 5748 5738 5736 5726 5722 5715 5712 5708 5705 5700 5696 5691 5686 5681 5682 5682 5684 5683 5682 5682 5686 5681 5677 5675 5672 5668 5667 5667 5665 5666 5665 5663 5667
5805 5802 5783 5788 5798 5787 5788 5788 5781 5775 5760 5737 5733 5735 5738 5737 5732 5727 5721 5713 5708 5703 5700 5699 5699 5697 5694 5688 5683 5678 5678 5683 5684 5682 5680 5682 5679 5678 5675 5671 5667 5663 5661 5658 5657 5659 5659 5664 5666
5788 5774 5788 5785 5792 5790 5776 5771 5780 5766 5738 5735 5725 5721 5723 5722 5714 5713 5711 5706 5702 5697 5695 5698 5696 5694 5694 5686 5679 5676 5675 5677 5676 5675 5674 5674 5674 5673 5670 5670 5666 5661 5654 5655 5654 5656 5658 5656 5655
5774 5777 5786 5780 5781 5780 5766 5761 5741 5745 5723 5724 5718 5717 5712 5706 5702 5701 5698 5699 5699 5693 5689 5689 5687 5687 5684 5687 5683 5677 5675 5673 5676 5672 5666 5667 5666 5665 5662 5664 5663 5655 5656 5652 5651 5649 5645 5644 5646
5774 5771 5774 5776 5772 5764 5758 5743 5731 5718 5719 5716 5711 5708 5703 5696 5693 5694 5690 5687 5687 5681 5678 5678 5676 5675 5676 5674 5671 5667 5665 5664 5662 5661 5657 5657 5655 5654 5651 5652 5650 5647 5644 5641 5636 5630 5629 5630 5637
5777 5772 5769 5770 5766 5761 5747 5732 5728 5712 5715 5710 5704 5696 5694 5691 5688 5685 5680 5675 5673 5673 5669 5667 5664 5661 5661 5657 5656 5654 5653 5651 5650 5646 5642 5640 5638 5633 5635 5630 5630 5629 5622 5616 5617 5612 5615 5624 5625
5776 5764 5767 5763 5763 5756 5762 5725 5703 5707 5709 5702 5696 5692 5686 5684 5678 5669 5664 5661 5660 5661 5659 5657 5657 5653 5648 5645 5641 5639 5634 5633 5628 5628 5626 5624 5621 5619 5615 5613 5612 5613 5612 5606 5605 5603 5605 5615 5613
5775 5776 5762 5756 5760 5759 5759 5698 5707 5713 5707 5695 5690 5685 5680 5670 5662 5656 5653 5651 5650 5648 5644 5640 5640 5636 5632 5628 5627 5625 5623 5622 5619 5616 5612 5612 5610 5608 5605 5605 5602 5603 5599 5595 5592 5595 5591 5593 5596
5775 5761 5755 5747 5758 5754 5750 5699 5697 5705 5701 5694 5688 5677 5668 5659 5652 5646 5642 5639 5637 5634 5633 5631 5631 5628 5624 5620 5616 5611 5609 5608 5606 5604 5602 5599 5598 5596 5595 5590 5591 5591 5587 5582 5579 5579 5578 5581 5580
5761 5750 5749 5743 5737 5743 5717 5694 5699 5698 5700 5691 5684 5668 5656 5647 5638 5635 5632 5631 5629 5627 5624 5621 5621 5616 5614 5612 5611 5609 5607 5604 5598 5595 5592 5588 5585 5588 5585 5581 5581 5578 5576 5567 5569 5564 5568 5569 5570
5773 5757 5736 5730 5733 5725 5714 5699 5694 5695 5693 5678 5667 5657 5647 5638 5635 5631 5626 5626 5624 5620 5618 5614 5611 5604 5603 5601 5599 5598 5595 5595 5594 5589 5584 5582 5582 5582 5579 5579 5581 5571 5570 5562 5560 5554 5557 5564 5564
5767 5750 5733 5725 5726 5722 5707 5690 5680 5684 5682 5667 5655 5650 5643 5641 5636 5628 5623 5619 5617 5614 5610 5606 5600 5595 5591 5589 5585 5582 5581 5582 5580 5578 5573 5571 5568 5568 5568 5567 5568 5568 5563 5560 5554 5549 5552 5548 5546
5758 5751 5733 5731 5716 5716 5698 5687 5668 5667 5663 5658 5653 5649 5647 5637 5629 5624 5619 5612 5612 5606 5601 5597 5591 5585 5580 5575 5576 5574 5574 5573 5572 5567 5565 5560 5557 5555 5554 5551 5551 5551 5552 5552 5548 5542 5538 5541 5543
5754 5750 5740 5720 5716 5721 5711 5699 5691 5669 5652 5645 5647 5645 5641 5633 5623 5616 5614 5607 5603 5599 5596 5589 5582 5576 5572 5565 5563 5557 5559 5558 5553 5553 5550 5546 5545 5541 5540 5538 5537 5538 5538 5538 5536 5535 5535 5533 5531
5738 5746 5737 5726 5720 5706 5698 5688 5698 5688 5653 5638 5636 5632 5628 5622 5618 5610 5606 5601 5597 5594 5586 5579 5570 5565 5559 5553 5548 5546 5542 5541 5540 5537 5534 5533 5532 5530 5526 5524 5525 5525 5526 5528 5524 5523 5522 5523 5520
5745 5733 5729 5725 5721 5703 5706 5694 5685 5670 5665 5654 5633 5624 5621 5613 5607 5601 5600 5596 5591 5586 5577 5569 5560 5553 5547 5542 5538 5533 5527 5523 5522 5521 5520 5521 5519 5516 5509 5508 5508 5508 5509 5511 5513 5514 5514 5514 5514
5737 5730 5716 5713 5716 5712 5703 5687 5652 5649 5648 5644 5632 5619 5610 5603 5586 5581 5593 5589 5580 5570 5562 5554 5551 5544 5539 5532 5526 5521 5515 5512 5511 5507 5506 5503 5506 5505 5497 5496 5495 5496 5498 5500 5502 5504 5506 5507 5508
5724 5716 5704 5670 5688 5698 5701 5677 5630 5636 5637 5636 5625 5609 5599 5585 5581 5578 5583 5571 5566 5559 5548 5544 5541 5534 5528 5523 5514 5512 5505 5501 5498 5495 5492 5491 5487 5487 5485 5485 5484 5485 5486 5487 5489 5494 5499 5500 5502
5719 5705 5706 5685 5703 5687 5701 5647 5635 5626 5619 5617 5609 5604 5587 5583 5581 5575 5570 5561 5548 5546 5538 5536 5531 5525 5518 5509 5503 5498 5491 5489 5486 5481 5478 5480 5475 5473 5474 5474 5474 5475 5476 5477 5478 5482 5487 5493 5494
5707 5705 5684 5696 5662 5659 5691 5661 5623 5620 5612 5605 5602 5586 5584 5584 5571 5566 5557 5546 5538 5535 5534 5527 5521 5512 5506 5499 5493 5488 5481 5476 5471 5469 5467 5465 5463 5462 5464 5465 5465 5466 5466 5467 5470 5471 5473 5478 5483
5692 5686 5682 5676 5672 5661 5663 5629 5628 5621 5618 5606 5601 5593 5586 5573 5566 5554 5541 5536 5536 5533 5527 5518 5509 5501 5499 5491 5485 5479 5472 5468 5466 5462 5458 5455 5455 5455 5455 5456 5457 5458 5460 5463 5463 5464 5466 5472 5477
5681 5671 5672 5666 5653 5655 5654 5615 5632 5623 5614 5607 5596 5585 5574 5565 5555 5545 5543 5538 5531 5524 5516 5507 5500 5496 5492 5484 5476 5469 5466 5461 5457 5453 5450 5447 5446 5447 5449 5450 5448 5449 5451 5457 5461 5465 5466 5471 5477